Location: Neuvy-Saint-Sépulchre
(46.5950°N, 1.8122°E)
Time: 06:03:30
(UTC+02:00)

ISS - Visible Passes

Search period start: 25 May 2019 00:00
Search period end: 04 June 2019 00:00
Orbit: 408 x 418 km, 51.6° (Epoch: 25 May)

Date Brightness Start Highest point End Pass type
(mag) Time Alt. Az. Time Alt. Az. Time Alt. Az.
25 May -2.3 00:15:01 10° WNW 00:18:09 37° N 00:20:20 17° ENE visible
25 May -1.9 01:51:41 10° WNW 01:53:08 24° WNW 01:53:08 24° WNW visible
25 May -2.1 23:25:27 10° WNW 23:28:32 33° N 23:31:38 10° ENE visible
26 May -3.4 01:02:11 10° WNW 01:05:08 62° NNW 01:05:08 62° NNW visible
26 May -2.0 22:35:49 10° WNW 22:38:53 33° N 22:41:58 10° ENE visible
27 May -3.1 00:12:42 10° WNW 00:15:59 52° NNE 00:17:09 33° ENE visible
27 May -1.1 01:49:31 10° WNW 01:49:57 13° W 01:49:57 13° W visible
27 May -2.6 23:23:11 10° WNW 23:26:23 41° NNE 23:29:12 13° E visible
28 May -2.6 00:59:52 10° WNW 01:02:01 34° W 01:02:01 34° W visible
28 May -2.3 22:33:37 10° WNW 22:36:45 35° N 22:39:52 10° ENE visible
29 May -3.9 00:10:18 10° WNW 00:13:40 86° SSW 00:14:05 66° SE visible
29 May -3.5 23:20:46 10° WNW 23:24:06 65° NNE 23:26:10 21° E visible
30 May -1.6 00:57:46 10° W 00:58:59 17° W 00:58:59 17° W visible
30 May -3.0 22:31:15 10° WNW 22:34:30 48° NNE 22:37:46 10° E visible
31 May -3.1 00:07:59 10° WNW 00:11:06 39° SW 00:11:06 39° SW visible
31 May -3.7 23:18:20 10° WNW 23:21:39 64° SSW 23:23:14 28° SE visible
01 Jun -3.7 22:28:45 10° WNW 22:32:06 84° NNE 22:35:24 10° ESE visible
02 Jun -1.8 00:06:04 10° W 00:08:13 18° SW 00:08:13 18° SW visible
02 Jun -2.5 23:16:04 10° W 23:19:00 28° SW 23:20:25 20° S visible
03 Jun -3.2 22:26:19 10° WNW 22:29:31 45° SW 22:32:39 11° SE visible
